Location: T�bingen+AIT
(48.5342°N, 9.0700°E)
Time: 20:28:43
(UTC+02:00)

Cosmos 1766 - Pass Details

Date: 14 September 2017
Orbit: 523 x 548 km, 82.5° (Epoch: 19 September)

Event Time Altitude Azimuth Distance (km) Brightness Sun altitude
Exits shadow 21:55:23 54° 42° (NE) 659 3.5 -22.1°
Drops below altitude 10° 21:58:37 10° 14° (NNE) 1,799 6.2 -22.5°
Sets 22:00:47 0° 12° (NNE) 2,691 7.1 -22.8°
